This is the latest recevied weather packets stored in our database for station/object AD0YN. If no packets are shown the sender has not sent any weather packets the latest 10 day(s).
| Time | Temp. | Humidity | Pressure | Rain* | Wind** | Luminosity | Snow |
|---|---|---|---|---|---|---|---|
| 1778081771 | 13.33° C | 33% | 1017.9 hPa | 0 mm | - | 672 W/m² | - |
| 1778081468 | 13.33° C | 33% | 1017.9 hPa | 0 mm | - | 641 W/m² | - |
| 1778081165 | 13.33° C | 34% | 1017.9 hPa | 0 mm | - | 641 W/m² | - |
| 1778080863 | 13.33° C | 40% | 1017.9 hPa | 0 mm | - | 639 W/m² | - |
| 1778080561 | 13.33° C | 41% | 1017.9 hPa | 0 mm | - | 622 W/m² | - |
| 1778080258 | 12.78° C | 40% | 1018 hPa | 0 mm | - | 601 W/m² | - |
| 1778079954 | 12.78° C | 46% | 1017.8 hPa | 0 mm | - | 567 W/m² | - |
| 1778079651 | 12.78° C | 40% | 1017.8 hPa | 0 mm | - | 562 W/m² | - |
| 1778079348 | 12.78° C | 42% | 1017.9 hPa | 0 mm | - | 581 W/m² | - |
| 1778079045 | 12.78° C | 42% | 1017.7 hPa | 0 mm | - | 563 W/m² | - |
| 1778078742 | 12.78° C | 46% | 1017.2 hPa | 0 mm | - | 528 W/m² | - |
| 1778078439 | 12.22° C | 46% | 1017.4 hPa | 0 mm | - | 536 W/m² | - |
| 1778078137 | 12.22° C | 43% | 1017.5 hPa | 0 mm | - | 480 W/m² | - |
| 1778077835 | 12.22° C | 47% | 1017.6 hPa | 0 mm | - | 466 W/m² | - |
| 1778077532 | 11.67° C | 47% | 1017.6 hPa | 0 mm | - | 288 W/m² | - |
| 1778077231 | 11.67° C | 49% | 1017.3 hPa | 0 mm | - | 326 W/m² | - |
| 1778076928 | 11.67° C | 48% | 1017.6 hPa | 0 mm | - | 335 W/m² | - |
| 1778076626 | 11.67° C | 50% | 1017.5 hPa | 0 mm | - | 362 W/m² | - |
| 1778076323 | 11.67° C | 48% | 1017.4 hPa | 0 mm | - | 500 W/m² | - |
| 1778076021 | 11.67° C | 51% | 1017.1 hPa | 0 mm | - | 517 W/m² | - |
| 1778075717 | 11.11° C | 49% | 1017.3 hPa | 0 mm | - | 362 W/m² | - |
| 1778075414 | 10.56° C | 52% | 1017.2 hPa | 0 mm | - | 293 W/m² | - |
| 1778075110 | 10.56° C | 50% | 1017 hPa | 0 mm | - | 251 W/m² | - |
| 1778074806 | 10.56° C | 52% | 1016.9 hPa | 0 mm | - | 199 W/m² | - |
| 1778074504 | 10.56° C | 50% | 1017 hPa | 0 mm | - | 229 W/m² | - |
* Rain latest hour (hover to see other rain measurements)
** Current wind speed in m/s (hover to see current wind gust speed)